TimeMST,TemperatureF,Dew PointF,Humidity,Sea Level PressureIn,VisibilityMPH,Wind Direction,Wind SpeedMPH,Gust SpeedMPH,PrecipitationIn,Events,Conditions,WindDirDegrees,DateUTC
12:53 AM,28.0,18.0,66,29.68,10.0,SSE,9.2,-,N/A,,Clear,160,2013-02-23 07:53:00
1:53 AM,28.9,18.0,64,29.65,10.0,SSE,10.4,-,N/A,,Overcast,160,2013-02-23 08:53:00
2:53 AM,30.0,18.0,61,29.63,10.0,SSE,10.4,-,N/A,,Overcast,160,2013-02-23 09:53:00
3:53 AM,30.0,18.0,61,29.62,10.0,SSE,8.1,-,N/A,,Overcast,160,2013-02-23 10:53:00
4:53 AM,30.9,19.0,61,29.62,10.0,South,9.2,-,N/A,,Overcast,170,2013-02-23 11:53:00
5:53 AM,30.9,19.0,61,29.63,10.0,SSE,5.8,-,N/A,,Overcast,160,2013-02-23 12:53:00
6:53 AM,30.9,19.0,61,29.63,10.0,South,9.2,-,N/A,,Overcast,170,2013-02-23 13:53:00
7:53 AM,32.0,19.9,61,29.64,10.0,SSE,8.1,-,N/A,,Overcast,160,2013-02-23 14:53:00
8:53 AM,35.1,21.0,57,29.66,10.0,SSE,5.8,-,N/A,,Mostly Cloudy,150,2013-02-23 15:53:00
9:53 AM,37.9,21.0,51,29.66,10.0,South,3.5,-,N/A,,Overcast,180,2013-02-23 16:53:00
10:53 AM,41.0,19.9,43,29.66,10.0,SW,4.6,-,N/A,,Overcast,230,2013-02-23 17:53:00
11:53 AM,43.0,19.9,40,29.66,10.0,West,8.1,-,N/A,,Mostly Cloudy,280,2013-02-23 18:53:00
12:53 PM,46.0,21.9,39,29.65,10.0,West,8.1,-,N/A,,Overcast,280,2013-02-23 19:53:00
1:53 PM,46.9,26.1,44,29.65,10.0,NNW,12.7,-,N/A,,Overcast,330,2013-02-23 20:53:00
2:53 PM,43.0,30.0,60,29.69,10.0,WNW,15.0,-,N/A,,Overcast,300,2013-02-23 21:53:00
3:37 PM,37.4,35.6,93,29.66,10.0,NW,10.4,-,0.00,Rain,Light Rain,320,2013-02-23 22:37:00
3:53 PM,39.0,35.1,86,29.73,10.0,NW,9.2,-,0.00,Rain,Light Rain,310,2013-02-23 22:53:00
4:11 PM,39.2,35.6,87,29.67,10.0,NW,11.5,-,0.01,,Overcast,310,2013-02-23 23:11:00
4:53 PM,39.0,34.0,82,29.75,10.0,NW,11.5,-,0.01,,Overcast,310,2013-02-23 23:53:00
5:53 PM,35.1,28.9,78,29.80,10.0,NW,15.0,-,N/A,,Mostly Cloudy,320,2013-02-24 00:53:00
6:53 PM,34.0,30.0,85,29.83,10.0,WNW,8.1,-,N/A,,Overcast,300,2013-02-24 01:53:00
7:53 PM,34.0,28.9,82,29.87,10.0,WNW,8.1,-,N/A,,Overcast,290,2013-02-24 02:53:00
8:53 PM,35.1,28.0,76,29.90,6.0,NNW,11.5,-,0.00,Snow,Light Snow,330,2013-02-24 03:53:00
9:53 PM,35.1,27.0,72,29.91,10.0,WNW,10.4,-,0.00,Snow,Light Snow,300,2013-02-24 04:53:00
10:53 PM,34.0,27.0,75,29.92,10.0,SSW,6.9,-,0.00,,Overcast,200,2013-02-24 05:53:00
11:53 PM,33.1,28.0,82,29.94,10.0,WSW,11.5,-,N/A,,Overcast,240,2013-02-24 06:53:00